Weather History for Middletown, OH

Change the Weather History Date:

Wednesday, January 29, 2014

  Actual Average (KDAY) Record (KDAY)
Temperature  
Mean Temperature 8 °F 28 °F  
Max Temperature 22 °F 35 °F 66 °F (1914)
Min Temperature -7 °F 21 °F -10 °F (1977)
Degree Days  
Heating Degree Days 58 37  
Month to date heating degree days 1090  
Since 1 July heating degree days 3249  
Cooling Degree Days 0 0  
Month to date cooling degree days 0  
Year to date cooling degree days 0  
Moisture  
Dew Point -4 °F    
Average Humidity 59    
Maximum Humidity 78    
Minimum Humidity 32    
Precipitation  
Precipitation 0.00 in 0.08 in 1.37 in (1969)
Month to date precipitation 2.55  
Year to date precipitation 2.55  
Snow  
Snow 0.00 in 0.30 in 3.50 in (1990)
Month to date snowfall 7.4  
Since 1 July snowfall 12.9  
Snow Depth -    
Sea Level Pressure  
Sea Level Pressure 30.33 in    
Wind  
Wind Speed 4 mph (SW)    
Max Wind Speed 17 mph    
Max Gust Speed 23 mph    
Visibility 10 miles    
Events      
T = Trace of Precipitation, MM = Missing Value Source: NWS Daily Summary

Daily Weather History Graph

Daily Weather History Graph

Search for Another Location

Airport:

Trip Planner

Search our weather history database for the weather conditions in past years. The results will help you decide how hot, cold, wet, or windy it might be!

Date:

Astronomy

Jan. 29, 2014 Rise Set
Actual Time 7:47 AM EST 5:54 PM EST
Civil Twilight 7:19 AM EST 6:22 PM EST
Nautical Twilight 6:46 AM EST 6:55 PM EST
Astronomical Twilight 6:15 AM EST 7:26 PM EST
Moon 6:23 AM EST (1/29) 4:52 PM EST (1/29)
Length of Visible Light 11h 03m
Length of Day
10h 06m
Waning Crescent, 2% of the Moon is Illuminated
Jan 29
Waning Crescent
Jan 30
New
Feb 6
First Quarter
Feb 14
Full
Feb 22
Last Quarter

Hourly Weather History & Observations

Time (EST) Temp. Windchill Dew Point Humidity Pressure Visibility Wind Dir Wind Speed Gust Speed Precip Events Conditions
12:15 AM -4.9 °F - -11.2 °F 74% 30.35 in 10.0 mi Calm Calm - N/A   Clear
12:35 AM -4.9 °F - -11.2 °F 74% 30.36 in 10.0 mi Calm Calm - N/A   Clear
12:55 AM -4.9 °F -13.4 °F -11.2 °F 74% 30.36 in 10.0 mi NW 3.5 mph - N/A   Clear
1:15 AM -6.2 °F - -12.8 °F 73% 30.35 in 10.0 mi Calm Calm - N/A   Clear
1:35 AM -4.9 °F - -11.2 °F 74% 30.35 in 10.0 mi Calm Calm - N/A   Clear
1:55 AM -5.4 °F - -11.7 °F 74% 30.35 in 10.0 mi Calm Calm - N/A   Clear
2:15 AM -4.9 °F - -11.2 °F 74% 30.36 in 7.0 mi Calm Calm - N/A   Clear
2:35 AM -4.9 °F - -11.2 °F 74% 30.35 in 7.0 mi Calm Calm - N/A   Clear
2:55 AM -6.0 °F - -12.3 °F 74% 30.35 in 10.0 mi Calm Calm - N/A   Clear
3:15 AM -6.2 °F - -12.5 °F 74% 30.35 in 7.0 mi Calm Calm - N/A   Clear
3:35 AM -5.6 °F - -11.9 °F 74% 30.35 in 0.2 mi Calm Calm - N/A   Haze
3:55 AM -7.2 °F - -13.9 °F 73% 30.35 in 10.0 mi Calm Calm - N/A   Clear
4:15 AM -6.3 °F - -12.6 °F 74% 30.34 in 10.0 mi Calm Calm - N/A   Clear
4:35 AM -4.9 °F - -11.2 °F 74% 30.33 in 10.0 mi Calm Calm - N/A   Clear
4:55 AM -4.9 °F -13.4 °F -11.2 °F 74% 30.33 in 10.0 mi WSW 3.5 mph - N/A   Clear
5:15 AM -2.4 °F -10.6 °F -8.5 °F 75% 30.34 in 10.0 mi WSW 3.5 mph - N/A   Clear
5:35 AM -2.9 °F -11.2 °F -8.9 °F 76% 30.34 in 10.0 mi WSW 3.5 mph - N/A   Clear
5:55 AM -2.4 °F -10.6 °F -8.3 °F 76% 30.34 in 10.0 mi SW 3.5 mph - N/A   Clear
6:15 AM -4.9 °F - -11.2 °F 74% 30.34 in 10.0 mi Calm Calm - N/A   Clear
6:35 AM -4.9 °F - -11.2 °F 74% 30.34 in 10.0 mi Calm Calm - N/A   Clear
6:55 AM -4.9 °F - -11.2 °F 74% 30.34 in 10.0 mi Calm Calm - N/A   Clear
7:15 AM -4.7 °F -15.4 °F -10.8 °F 75% 30.34 in 10.0 mi SW 4.6 mph - N/A   Clear
7:35 AM -3.8 °F -14.4 °F -9.8 °F 76% 30.34 in 10.0 mi SW 4.6 mph - N/A   Clear
7:55 AM -2.4 °F -10.6 °F -8.5 °F 75% 30.35 in 10.0 mi WSW 3.5 mph - N/A   Clear
8:15 AM -2.4 °F -10.6 °F -8.5 °F 75% 30.35 in 10.0 mi WSW 3.5 mph - N/A   Clear
8:35 AM -2.0 °F -15.4 °F -8.0 °F 76% 30.35 in 10.0 mi SW 6.9 mph - N/A   Clear
8:55 AM 1.2 °F -13.7 °F -4.5 °F 77% 30.35 in 10.0 mi SW 9.2 mph - N/A   Clear
9:15 AM 2.7 °F -10.9 °F -3.1 °F 77% 30.35 in 10.0 mi SW 8.1 mph - N/A   Clear
9:35 AM 5.0 °F -9.1 °F -0.4 °F 78% 30.36 in 10.0 mi SW 9.2 mph - N/A   Clear
9:55 AM 7.7 °F -4.8 °F 1.9 °F 77% 30.36 in 10.0 mi SW 8.1 mph - N/A   Clear
10:15 AM 8.1 °F -5.3 °F 2.1 °F 77% 30.36 in 10.0 mi WSW 9.2 mph - N/A   Clear
10:35 AM 12.6 °F 0.2 °F 5.4 °F 73% 30.36 in 10.0 mi WSW 9.2 mph - N/A   Clear
10:55 AM 12.7 °F -0.4 °F 4.5 °F 70% 30.36 in 10.0 mi WSW 10.4 mph - N/A   Clear
11:15 AM 15.3 °F 3.5 °F 3.2 °F 59% 30.36 in 10.0 mi SW 9.2 mph - N/A   Clear
11:35 AM 15.3 °F 2.0 °F -1.7 °F 47% 30.36 in 10.0 mi SSW 11.5 mph - N/A   Clear
11:55 AM 15.8 °F 3.4 °F -2.2 °F 45% 30.35 in 10.0 mi SW 10.4 mph - N/A   Clear
12:15 PM 17.6 °F 4.3 °F -0.8 °F 45% 30.35 in 10.0 mi SW 12.7 mph - N/A   Clear
12:35 PM 17.6 °F 3.7 °F -3.5 °F 39% 30.33 in 10.0 mi SW 13.8 mph 17.3 mph N/A   Clear
12:55 PM 18.7 °F 3.6 °F -2.7 °F 39% 30.32 in 10.0 mi SW 17.3 mph 21.9 mph N/A   Clear
1:15 PM 19.4 °F 7.2 °F -2.6 °F 38% 30.31 in 10.0 mi SW 11.5 mph - N/A   Clear
1:35 PM 20.3 °F 7.7 °F -3.8 °F 35% 30.31 in 10.0 mi SW 12.7 mph 21.9 mph N/A   Clear
1:55 PM 20.5 °F 7.4 °F -3.8 °F 34% 30.30 in 10.0 mi WSW 13.8 mph 20.7 mph N/A   Clear
2:15 PM 20.8 °F 9.0 °F -4.0 °F 34% 30.30 in 10.0 mi WSW 11.5 mph 20.7 mph N/A   Clear
2:35 PM 21.0 °F 8.1 °F -4.2 °F 33% 30.30 in 10.0 mi WSW 13.8 mph 23.0 mph N/A   Clear
2:55 PM 21.0 °F 8.1 °F -4.4 °F 33% 30.30 in 10.0 mi WSW 13.8 mph - N/A   Clear
3:15 PM 21.6 °F 9.3 °F -4.2 °F 32% 30.30 in 10.0 mi West 12.7 mph 19.6 mph N/A   Clear
3:35 PM 21.6 °F 8.8 °F -4.5 °F 32% 30.30 in 10.0 mi West 13.8 mph - N/A   Clear
3:55 PM 22.5 °F 9.9 °F -2.2 °F 34% 30.30 in 10.0 mi SW 13.8 mph 21.9 mph N/A   Clear
4:15 PM 21.6 °F 9.9 °F -3.6 °F 33% 30.31 in 10.0 mi West 11.5 mph 16.1 mph N/A   Clear
4:35 PM 22.6 °F 10.7 °F -2.6 °F 33% 30.32 in 10.0 mi WSW 12.7 mph - N/A   Clear
4:55 PM 21.6 °F 9.9 °F -2.9 °F 34% 30.32 in 10.0 mi WSW 11.5 mph - N/A   Clear
5:15 PM 21.2 °F 10.9 °F -3.6 °F 34% 30.32 in 10.0 mi WSW 9.2 mph - N/A   Clear
5:35 PM 20.3 °F 10.6 °F -2.2 °F 37% 30.32 in 10.0 mi WSW 8.1 mph - N/A   Clear
5:55 PM 19.0 °F 10.0 °F -1.8 °F 40% 30.31 in 10.0 mi WSW 6.9 mph - N/A   Clear
6:15 PM 19.0 °F 10.0 °F -1.5 °F 41% 30.31 in 10.0 mi SW 6.9 mph - N/A   Clear
6:35 PM 18.7 °F 13.5 °F -1.3 °F 42% 30.32 in 10.0 mi WSW 3.5 mph - N/A   Clear
6:55 PM 18.1 °F 11.3 °F -0.4 °F 44% 30.32 in 10.0 mi SW 4.6 mph - N/A   Clear
7:15 PM 15.3 °F 9.6 °F 0.5 °F 52% 30.32 in 10.0 mi SW 3.5 mph - N/A   Clear
7:35 PM 14.9 °F - 2.7 °F 58% 30.32 in 10.0 mi Calm Calm - N/A   Clear
7:55 PM 12.7 °F - 3.6 °F 67% 30.32 in 10.0 mi Calm Calm - N/A   Clear
8:15 PM 12.7 °F 5.0 °F 3.6 °F 67% 30.32 in 10.0 mi SW 4.6 mph - N/A   Clear
8:35 PM 12.7 °F 2.4 °F 0.9 °F 59% 30.32 in 10.0 mi SW 6.9 mph - N/A   Clear
8:55 PM 15.1 °F 5.2 °F 1.9 °F 56% 30.32 in 10.0 mi SW 6.9 mph - N/A   Clear
9:15 PM 15.3 °F 5.4 °F 1.2 °F 54% 30.31 in 10.0 mi SSW 6.9 mph - N/A   Clear
9:35 PM 15.3 °F 5.4 °F 0.9 °F 53% 30.30 in 10.0 mi SSW 6.9 mph - N/A   Clear
9:55 PM 15.3 °F 7.9 °F 1.2 °F 54% 30.30 in 10.0 mi SW 4.6 mph - N/A   Clear
10:15 PM 15.3 °F 7.9 °F 0.9 °F 53% 30.30 in 10.0 mi SW 4.6 mph - N/A   Clear
10:35 PM 13.3 °F 5.6 °F -0.0 °F 55% 30.30 in 10.0 mi SW 4.6 mph - N/A   Clear
10:55 PM 12.7 °F 5.0 °F 1.0 °F 60% 30.30 in 10.0 mi SW 4.6 mph - N/A   Clear
11:15 PM 13.8 °F 4.9 °F 0.9 °F 56% 30.30 in 10.0 mi SW 5.8 mph - N/A   Clear
11:35 PM 12.7 °F 3.6 °F 1.2 °F 60% 30.29 in 10.0 mi SW 5.8 mph - N/A   Clear
11:55 PM 12.7 °F 5.0 °F 1.8 °F 62% 30.29 in 10.0 mi WSW 4.6 mph - N/A   Clear